Home   Weather   Laval   Past weeks

Flag for Canada Past Weather in Laval, Quebec, Canada — Yesterday and Last 2 Weeks

Now
25 °F

Snow flurries. Partly sunny.


Feels Like: 13 °F
Forecast: 19 / 26 °F
Wind: 14 mph from Northwest

Location: Montreal / Mirabel

Current Time: Dec 9, 2016 at 12:33:59 pm

Latest Report: Dec 9, 2016 at 12:00 pm


Visibility: 45 mi

Pressure: 30.02 "Hg

Humidity: 50%

Dew Point: 9 °F

Location of LavalLocation

Past Weather in Laval — Graph

°F

Laval Temperature Yesterday

Maximum temperature yesterday: 34 °F (at 12:00 pm)
Minimum temperature yesterday: 25 °F (at 5:00 am)
Average temperature yesterday: 30 °F

High & Low Weather Summary for the Past Weeks

 TemperatureHumidityPressure
High45 °F (Dec 1, 10:00 am)100% (Nov 24, 7:00 pm)30.30 "Hg (Nov 24, 7:00 pm)
Low19 °F (Dec 6, 1:00 am)51% (Dec 4, 2:00 pm)29.37 "Hg (Dec 1, 5:00 am)
Average31 °F89%29.97 "Hg
* Reported Nov 24 11:00 am — Dec 9 11:00 am, Laval, Weather by CustomWeather, © 2016

Note: Actual official high and low records may vary slightly from our data, if they occured in-between our weather recording intervals... More about our weather records

Advertising

Laval Weather History for the Previous 24 Hours

Scroll right to see more
 ConditionsComfort  
Time TempWeatherWind HumidityBarometerVisibility
11:00 am
Fri, Dec 9
25 °FSnow flurries. Partly sunny.8 mph54%30.02 "Hg45 mi
10:00 am25 °FSnow flurries. Partly sunny.20 mph54%30.01 "Hg15 mi
9:00 am21 °FPassing clouds.8 mph80%29.98 "Hg15 mi
8:00 am21 °FSnow flurries. Partly sunny.9 mph80%29.96 "Hg25 mi
7:00 am21 °FSnow flurries. Passing clouds.9 mph80%29.94 "Hg8 mi
6:00 am23 °FSnow flurries. Passing clouds.8 mph80%29.92 "Hg15 mi
5:00 am25 °FPassing clouds.9 mph59%29.89 "Hg25 mi
4:00 am25 °FPassing clouds.9 mph63%29.87 "Hg25 mi
3:00 am25 °FPassing clouds.7 mph69%29.85 "Hg25 mi
2:00 am25 °FPassing clouds.7 mph74%29.83 "Hg25 mi
1:00 am25 °FPartly cloudy.9 mph74%29.80 "Hg25 mi
12:00 am25 °FPartly cloudy.8 mph80%29.78 "Hg25 mi
11:00 pm
Thu, Dec 8
27 °FPassing clouds.6 mph74%29.77 "Hg25 mi
10:00 pm28 °FPartly cloudy.6 mph74%29.75 "Hg20 mi
9:00 pm30 °FSnow flurries. Mostly cloudy.9 mph86%29.74 "Hg5 mi
8:00 pm30 °FSnow flurries. Mostly cloudy.12 mph93%29.73 "Hg15 mi
7:00 pm30 °FOvercast.9 mph93%29.74 "Hg15 mi
6:00 pm30 °FPartly cloudy.10 mph86%29.74 "Hg20 mi
5:00 pm30 °FLight mixture of precip. Partly cloudy.8 mph86%29.73 "Hg25 mi
4:00 pm32 °FBroken clouds.10 mph69%29.72 "Hg30 mi
3:00 pm34 °FBroken clouds.10 mph65%29.71 "Hg30 mi
2:00 pm34 °FSnow flurries. Partly sunny.10 mph65%29.72 "Hg25 mi
1:00 pm34 °FPartly sunny.14 mph70%29.72 "Hg25 mi
12:00 pm34 °FSnow flurries. Partly sunny.8 mph75%29.74 "Hg20 mi
Weather by CustomWeather, © 2016

See weather overviewHow to use our weather pages